TimeEDT,TemperatureF,Dew PointF,Humidity,Sea Level PressureIn,VisibilityMPH,Wind Direction,Wind SpeedMPH,Gust SpeedMPH,PrecipitationIn,Events,Conditions,WindDirDegrees,DateUTC
12:54 AM,73.9,69.1,85,30.12,8.0,SW,3.5,-,N/A,,Partly Cloudy,220,2012-10-04 04:54:00
1:54 AM,73.9,69.1,85,30.12,7.0,Calm,Calm,-,N/A,,Clear,0,2012-10-04 05:54:00
2:54 AM,75.9,70.0,82,30.11,10.0,West,6.9,-,N/A,,Clear,270,2012-10-04 06:54:00
3:54 AM,75.9,70.0,82,30.10,10.0,West,4.6,-,N/A,,Clear,270,2012-10-04 07:54:00
4:54 AM,75.9,71.1,85,30.11,8.0,West,4.6,-,N/A,,Clear,280,2012-10-04 08:54:00
5:22 AM,75.9,71.1,85,30.12,8.0,West,5.8,-,N/A,,Scattered Clouds,270,2012-10-04 09:22:00
5:54 AM,75.9,71.1,85,30.12,7.0,West,5.8,-,N/A,,Mostly Cloudy,280,2012-10-04 09:54:00
6:54 AM,75.9,71.1,85,30.12,6.0,WNW,5.8,-,N/A,,Haze,290,2012-10-04 10:54:00
7:54 AM,75.9,71.1,85,30.13,6.0,WNW,5.8,-,N/A,,Haze,290,2012-10-04 11:54:00
8:54 AM,77.0,70.0,79,30.14,9.0,WNW,5.8,-,N/A,,Overcast,290,2012-10-04 12:54:00
9:54 AM,79.0,66.9,66,30.14,10.0,WNW,8.1,-,N/A,,Mostly Cloudy,300,2012-10-04 13:54:00
10:54 AM,82.0,68.0,62,30.13,10.0,WNW,4.6,-,N/A,,Mostly Cloudy,300,2012-10-04 14:54:00
11:54 AM,81.0,62.1,52,30.14,10.0,West,10.4,-,N/A,,Mostly Cloudy,280,2012-10-04 15:54:00
12:54 PM,84.9,60.1,43,30.11,10.0,WSW,10.4,-,N/A,,Clear,250,2012-10-04 16:54:00
1:54 PM,82.9,54.0,37,30.10,10.0,West,8.1,-,N/A,,Mostly Cloudy,260,2012-10-04 17:54:00
2:54 PM,82.9,55.9,39,30.08,10.0,WNW,9.2,-,N/A,,Mostly Cloudy,290,2012-10-04 18:54:00
3:54 PM,82.0,60.1,47,30.07,10.0,West,8.1,-,N/A,,Clear,270,2012-10-04 19:54:00
4:54 PM,80.1,60.1,50,30.08,10.0,West,8.1,-,N/A,,Clear,280,2012-10-04 20:54:00
5:54 PM,75.9,60.1,58,30.07,10.0,West,8.1,-,N/A,,Clear,280,2012-10-04 21:54:00
6:54 PM,73.0,61.0,66,30.08,10.0,West,4.6,-,N/A,,Clear,270,2012-10-04 22:54:00
7:54 PM,72.0,62.1,71,30.08,10.0,West,4.6,-,N/A,,Clear,270,2012-10-04 23:54:00
8:54 PM,72.0,62.1,71,30.09,10.0,WNW,3.5,-,N/A,,Clear,290,2012-10-05 00:54:00
9:54 PM,71.1,63.0,75,30.10,10.0,NW,4.6,-,N/A,,Clear,310,2012-10-05 01:54:00
10:54 PM,70.0,62.1,76,30.11,10.0,NW,5.8,-,N/A,,Clear,310,2012-10-05 02:54:00
11:54 PM,69.1,62.1,78,30.11,10.0,NW,3.5,-,N/A,,Clear,310,2012-10-05 03:54:00